This is the latest recevied weather packets stored in our database for station/object EA1L-13. If no packets are shown the sender has not sent any weather packets the latest 10 day(s).
| Time | Temp. | Humidity | Pressure | Rain* | Wind** | Luminosity | Snow |
|---|---|---|---|---|---|---|---|
| 1777736704 | 14.44° C | 100% | 1012.3 hPa | 0 mm | - | - | - |
| 1777735804 | 14.44° C | 100% | 1012.2 hPa | 0 mm | - | - | - |
| 1777734904 | 14.44° C | 100% | 1012.4 hPa | 0.51 mm | - | - | - |
| 1777734004 | 14.44° C | 100% | 1012.7 hPa | 2.03 mm | - | - | - |
| 1777733104 | 13.89° C | 100% | 1013 hPa | 4.06 mm | - | - | - |
| 1777732204 | 13.89° C | 100% | 1012.2 hPa | 5.08 mm | - | - | - |
| 1777731305 | 13.89° C | 100% | 1013.2 hPa | 8.64 mm | - | - | - |
| 1777730404 | 13.89° C | 100% | 1012.6 hPa | 7.11 mm | - | - | - |
| 1777729504 | 14.44° C | 100% | 1011.7 hPa | 6.1 mm | - | - | - |
| 1777728605 | 14.44° C | 98% | 1012.4 hPa | 5.33 mm | - | - | - |
| 1777727704 | 15° C | 96% | 1012.1 hPa | 1.27 mm | - | - | - |
| 1777726804 | 15° C | 93% | 1012.1 hPa | 1.27 mm | - | - | - |
| 1777725904 | 15.56° C | 89% | 1012 hPa | 0.25 mm | - | - | - |
| 1777725004 | 16.11° C | 87% | 1012 hPa | 0 mm | - | - | - |
| 1777724104 | 16.67° C | 86% | 1012.1 hPa | 0 mm | - | - | - |
| 1777723204 | 16.67° C | 88% | 1011.8 hPa | 0 mm | - | - | - |
| 1777722304 | 16.67° C | 84% | 1012.4 hPa | 0 mm | - | - | - |
| 1777721405 | 16.11° C | 81% | 1012.9 hPa | 0 mm | - | - | - |
| 1777720504 | 16.11° C | 79% | 1013 hPa | 0 mm | - | - | - |
| 1777719605 | 16.67° C | 78% | 1013.1 hPa | 0 mm | - | - | - |
| 1777718704 | 17.78° C | 81% | 1012.8 hPa | 0 mm | - | - | - |
| 1777717805 | 16.67° C | 84% | 1013.1 hPa | 0 mm | - | - | - |
| 1777716904 | 16.67° C | 86% | 1013.3 hPa | 0 mm | - | - | - |
| 1777716004 | 16.67° C | 90% | 1013.4 hPa | 0 mm | - | - | - |
| 1777715104 | 16.67° C | 94% | 1013.4 hPa | 0 mm | - | - | - |
* Rain latest hour (hover to see other rain measurements)
** Current wind speed in m/s (hover to see current wind gust speed)